TIMESTAMP,CO2_1_1_1,H2O_1_1_1,TAU_1_1_1,TAU_SSITC_TEST_1_1_1,H_1_1_1,H_SSITC_TEST_1_1_1,LE_1_1_1,LE_SSITC_TEST_1_1_1,FC_1_1_1,FC_SSITC_TEST_1_1_1,WD_0_0_1,WS_0_0_1,WS_MAX_0_0_1,U_SIGMA_0_0_1,V_SIGMA_0_0_1,W_SIGMA_0_0_1,USTAR_0_0_1,MO_LENGTH_0_0_1,ZL_0_0_1,FETCH_MAX_0_0_1,FETCH_70_0_0_1,FETCH_80_0_0_1,FETCH_90_0_0_1,PA_0_0_1,RH_0_0_1,TA_0_0_1,VPD_0_0_1,T_SONIC_0_0_1,T_SONIC_SIGMA_0_0_1
[yyyymmddHHMMSS],[mmolCO2 mol-1],[mmolH2O mol-1],[kg m-1 s-2],[#],[W m-2],[#],[W m-2],[#],[umolCO2 m-2 s-1],[#],[Decimal degrees],[m s-1],[m s-1],[m s-1],[m s-1],[m s-1],[m s-1],[m],[#],[m],[m],[m],[m],[kPa],[%],[deg C],[hPa],[deg C],[deg C]
20240124003000,427.23430276267408,4.2768473293886071,0.11488602317313318,0,-3.0967341790011162,0,-2.2973468116405438E-004,2,0.53680943022320216,0,97.373748636282627,1.2070042071559548,3.3554937073522568,0.58948136281975982,0.39416085181636690,0.30575846928219791,0.30591166467368286,777.42383506510760,2.4439693180244196E-002,125.26476651883564,229.02394434462857,274.08316784895413,343.11960225502963,95.174560148654521,86.475666666666669,-3.5000000000000000,0.63677067188361947,-3.2563369064330914,2.8742415662276460E-002
20240124010000,427.47651497230652,4.3080805010121157,9.4758964817853425E-002,0,-4.3106320697189675,1,-0.48446660521973217,2,0.34333287151550934,0,114.30829776254562,1.4385385556617829,3.7013878449885138,0.58258951883333887,0.43169621710116463,0.30390888619828965,0.27778091636548269,418.27749829174610,4.5424389496438108E-002,116.52580334509034,213.04633251367008,254.96204722629844,319.18222823017993,95.212103014347875,87.037333333333336,-3.4839999999999804,0.61105629689422469,-3.2105932694511239,4.0787657205076010E-002
20240124013000,427.68635323093201,4.3152220810762634,0.14539869482582854,0,-6.9691137031777526,0,0.26143753763268451,1,0.56056271403030955,0,124.34511376746093,1.7200318643343964,3.9060264270478617,0.67830581900730214,0.51992697025688628,0.39887583829184525,0.34406208062606092,491.79083567358833,3.8634310812189862E-002,111.24850024148303,203.39773933077728,243.41514547145968,304.72687743832984,95.257676253038198,86.677333333333337,-3.3999999999999773,0.63198276410869203,-3.1301937272813234,3.8954218167787068E-002
20240124020000,427.80788767012507,4.3094785565139686,0.17726775267783701,0,-7.8251449098537735,0,-0.33409688961855832,1,0.87964471904479757,0,133.18534718254341,1.8087257308492333,4.6384815540023290,0.79338549228232613,0.54265212643810090,0.43409823935101099,0.37996644831653370,589.90142930383468,3.2208770916901538E-002,112.55911759232244,205.79396584807662,246.28281660787499,308.31686141088556,95.254154938585074,86.028000000000006,-3.3176666666666961,0.66687414863794181,-3.0574892781575045,4.7727842926539074E-002
20240124023000,427.76490652872889,4.3157035608593270,0.13108360293793750,0,-5.8829537081542380,0,0.13395742143894879,2,0.52339842928160030,0,130.67032619837551,1.5200512193808666,4.2644743225279758,0.68414150451407341,0.52955506087608906,0.38901048087296941,0.32683397027440464,499.27280522311406,3.8055347299577665E-002,108.93002657756453,199.15883003388478,238.34225367562016,298.37621888117792,95.228005649088544,85.630666666666670,-3.2400000000000091,0.68982680915124039,-2.9996439573499742,4.0355027731481391E-002
20240124030000,427.79439845908831,4.3155673367722205,0.15006536579682184,0,-6.8882272382555509,0,0.12498001866660775,1,0.59606440578241615,0,129.17360053262223,1.6465513275713191,4.0861528007072492,0.70412567053068109,0.51810294026489800,0.37995575132216464,0.34978837620606140,522.57234454050320,3.6358602207904177E-002,117.19599763288058,214.27166141925565,256.42845297291512,321.01799421490796,95.192943753472207,85.341333333333338,-3.1999999999999886,0.70582035592492276,-2.9674809222751151,4.2788451133260137E-002
20240124033000,428.16268301079305,4.2770986241111437,3.5294011578073374E-002,0,-3.8520495925272686,1,-3.5597806919888814E-002,2,0.31444638657291718,0,138.52222269636852,1.3670228340519410,2.7521416559601164,0.38728177342523373,0.32363658821778873,0.21939649010099657,0.16958505466358417,106.46397405312514,0.17846412524972127,95.617872005795988,798.00000000000000,1422.0000000000000,3645.0000000000000,95.161625924581898,86.107666666666674,-3.4440000000000168,0.65684208644437325,-3.2272775530695981,0.13254388918090407
20240124040000,427.99700448204231,4.2410764150991778,3.5900875290379143E-002,1,-9.0261863660593562,0,-0.23917879858281635,2,5.2971338568845214E-002,1,122.76197598076256,1.5434326773319171,2.8152141128808119,0.34178553591180288,0.31397615322836303,0.19484764822682032,0.17096850050240014,46.544243418319979,0.40821374684804806,118.29355840230129,1079.0000000000000,1972.0000000000000,5283.0000000000000,95.129153645182299,87.315666666666672,-3.7476666666666461,0.58624841545514816,-3.4509325875176273,0.14133148028820555
20240124043000,428.01053790484741,4.2321116686020881,5.7550141550703725E-002,0,-13.272534564624648,0,-6.4047664465219659E-002,2,5.2578800587595668E-002,2,125.72811944540376,1.8578697211077901,4.1029679517360167,0.44163390105595368,0.40030298573210710,0.24446438508772481,0.21641273967466068,64.193900609182322,0.29597827550118105,113.58178251808316,207.66372349461653,248.52043896801700,311.11809907985469,95.122570101345488,88.088666666666668,-3.8943333333332930,0.54449953796511352,-3.6254973924424121,0.18666449159756912
20240124050000,428.04751233953073,4.1755450839121693,0.14021311475297721,0,-18.550789468558126,0,-1.1966920736242967,1,0.42875815904438974,0,139.18854956510557,2.0355685524664957,4.5879925373158263,0.69291455560181381,0.54102994014521033,0.36976396844327070,0.33763860815312829,174.44317002152022,0.10891799316451346,116.43322035833889,212.87706128605925,254.75947279932305,318.92862908596277,95.142748354600698,88.161333333333332,-4.0816666666667061,0.53361741159748877,-3.8522570690578846,0.11643242697901250
20240124053000,428.31888299792314,4.1993321809806572,0.17208046586560757,0,-17.648478763516295,0,0.35971316430527522,0,0.75824653526773300,0,139.99236705165083,1.6759466890442609,4.7860451179826509,0.69748644024998485,0.49290183939495552,0.40408816489124527,0.37409470894446190,249.39103665570877,7.6185576894770388E-002,117.72243802762219,215.23416236039571,257.58032077328932,322.45999601537085,95.137051460069443,88.303666666666672,-4.0283333333333644,0.52931889377895180,-3.7694816589355469,9.3729345135616149E-002
20240124060000,428.77725570238448,4.2157418468819152,0.17295317172499919,0,-18.195357687639031,0,-0.54278062258132465,1,1.8894143921108988,0,140.41584945401311,1.6810139231380363,4.4287725260312998,0.71235405365188753,0.61822039553572761,0.46470541972076362,0.37508998751552797,243.81077056061037,7.7929288998644458E-002,105.49237912992326,192.87371411817625,230.82057516552041,288.95996994137465,95.125496062282977,88.409666666666666,-3.9940000000000282,0.52587629649821399,-3.7386141866048206,7.4093163348804031E-002
20240124063000,428.56714183937947,4.2465344396247708,0.23779155743013022,0,-13.733627842859645,0,-0.46357631550076811,2,1.4984115455193712,0,145.34412318126581,2.0553695417759648,5.7379545525861513,0.84498029510003170,0.73860417808537004,0.55511352663453972,0.43995599058457874,521.06079530435966,3.6464075154419948E-002,103.96253009746924,190.07666216652672,227.47321835643228,284.76947642820522,95.075383592447935,88.819333333333333,-3.9656666666666638,0.50836940647970441,-3.6984634365505258,5.8980068893061482E-002
20240124070000,428.41294546211287,4.2716973856160703,0.16911155392767444,0,-7.3078025712515808,0,-0.18540459594228384,1,0.97040121138911650,0,151.59049453228280,1.9165570785129875,4.7889175240687001,0.74701400576182286,0.63059552474218883,0.46893717160474341,0.37115493999449878,587.73361941772225,3.2327570471166217E-002,103.85020742729188,189.87130050196421,227.22745289405196,284.46180723289569,95.030493910807294,88.864333333333335,-3.8999999999999773,0.50882527960132340,-3.6813330832587212,4.4004840323772311E-002
20240124073000,428.37233271759715,4.2696217660179512,0.35364047934421228,0,-5.3710758012219033,0,0.26092426459699730,1,1.4553339689202609,0,146.68721857026193,1.9191744758224438,5.7529711300664976,0.97620063671600232,0.80087431039148149,0.58199925994821333,0.53673462088713342,2417.9590148646193,7.8578668551434489E-003,117.36122700919381,214.57375341636302,256.78997993808002,321.47058307494405,95.009094139800268,89.121666666666670,-3.9479999999999791,0.49527923826120063,-3.7242976153369796,4.1289422287827171E-002
20240124080000,428.11242670981983,4.2577839115300007,0.32207044268720980,0,3.3077058058836373E-002,2,0.25410957996242722,1,1.0296008377135717,0,163.44221477264418,2.5194047461574725,7.3992728223024695,1.2627759617179675,0.91869307543056389,0.65690870496278952,0.51210887150620554,-341032.71951662062,-5.5713129305981483E-005,102.59843252762631,187.58265675224789,224.48853085341133,281.03300185032634,95.010927588324662,89.595666666666659,-4.0553333333333512,0.46989508921440232,-3.8318528340657281,4.0468300632701480E-002
20240124083000,428.11621115488606,4.2642094975401585,0.46027873989326973,0,-4.8385673588057880,0,0.43229501930503977,1,1.1829575763882498,0,155.16813492792147,2.6709178877160906,7.6401225680338971,1.3328740602432518,1.0345368676531472,0.77780167760405383,0.61207606081211685,3981.2203017141605,4.7724060866009676E-003,103.37228458860315,188.99750512716969,226.18174300087563,283.15270253508896,95.035612312065979,90.055999999999997,-4.1000000000000227,0.44759976738454610,-3.8331144197251774,4.0899016930992231E-002
20240124090000,428.18049550771451,4.2895179384856545,0.38751217682046757,0,-5.4136316452283673,0,1.1229930269994652,1,1.0858867904641529,0,159.75705881203243,2.8723480461780233,7.5824612377629936,1.3016530940433821,1.0495513302001980,0.72699863823267752,0.56162411895939579,2748.9484836119250,6.9117337459286745E-003,101.85553216138105,186.22439794683211,222.86304196746804,278.99808265265347,95.035434559081409,90.542666666666662,-4.0930000000000177,0.42591795422840106,-3.8251340201340440,4.1501500977776835E-002
20240124093000,428.23286913239804,4.3052706611278797,0.59218604616393955,0,10.721605383103656,1,0.96366460402361132,1,1.0407898944910587,0,173.89139152539295,2.7560469522678273,8.2729353345833445,1.3048293675390494,1.2049299196700658,0.83936033971220358,0.69432478287464550,-2622.1888054376873,-7.2458550507878408E-003,107.58365077702682,196.69722566596434,235.39634194974744,294.68828697498759,95.009936032552076,91.096999999999994,-4.1290000000000191,0.39986948459217841,-3.9047404674953441,6.9441080346262118E-002
20240124100000,427.90326877021431,4.3594020803100664,0.34783643964420319,0,-8.5088683064872850,0,-0.26661517712104305,2,1.1348792299073809,0,160.34380939659650,2.6864966362219795,7.9596367827058279,1.2489064638794471,0.96118282561868962,0.71821190626232567,0.53227162019501284,1488.3150459865146,1.2766114305728894E-002,98.527954854974737,180.14052535437207,215.58220031703479,269.88333288241131,94.987517841145831,91.736666666666665,-4.0590000000000259,0.37309743378426619,-3.7985080439249259,9.3064722681219986E-002
20240124103000,427.81208706316642,4.4375725045547156,0.37549850635670856,0,-8.8099794117592474,0,0.95466153511834329,1,0.92697506652121953,0,160.27233858588633,2.2927412908307176,6.5863855657409367,1.1220284817975299,0.90223931823547066,0.70242116406651089,0.55338129855733942,1614.8818887182410,1.1765566344347710E-002,103.46570267283252,189.16830317931081,226.38614464685736,283.40858914067644,94.947376606298278,91.822333333333333,-3.8403333333333194,0.37534098593533771,-3.5847129073165434,8.2580862066302121E-002
20240124110000,428.03724103904494,4.5299937688652019,0.31720669189582162,0,-2.5096226252796909,2,3.0715262201742197,1,0.89649904459952634,0,157.98142842419654,2.8252233183952495,8.0427238043978981,1.1893900901426775,0.91147289511546192,0.71441361795043112,0.50900377289678911,4410.0607491671763,4.3083306740361975E-003,95.471098912198116,174.55161775677760,208.89370534963200,261.51013086890879,94.898395443576391,91.876666666666665,-3.5799999999999841,0.38019114485358785,-3.3437740114000007,7.0704754228865310E-002
20240124113000,428.33064324168004,4.5727681148041057,0.60742443578711747,0,-1.3814203915434549,2,1.8099309956596812,2,1.4698741477832875,0,158.85801939691629,3.0184566250202836,8.4042920414728517,1.4929572414608285,1.0889167694157447,0.77905143492648088,0.70473461386733072,21256.660845409289,8.9383747231886368E-004,115.56397633499149,211.28780598021811,252.85754009969997,316.54763503757908,94.852610310980907,91.660666666666671,-3.4293333333333180,0.39472375807544724,-3.2337603433396680,4.8764722285823889E-002
20240124120000,428.68613137763282,4.5744407293361435,0.28640798467675782,0,-1.4968437154805385,1,-0.88932820346310582,1,-5.3394348302105973E-002,2,160.72171324692840,1.9664759049776341,6.3145489980217597,1.0904593364246344,0.84808419405366597,0.58173963146895324,0.48399074024414762,6353.6037826260745,2.9904288416529039E-003,108.07907543608756,197.60301995031821,236.48034636503081,296.04533187027897,94.834586248914931,91.475999999999999,-3.3999999999999773,0.40435006114360195,-3.1903657633463354,3.1717594834577548E-002
20240124123000,428.80816941069065,4.5705831450598637,0.51949979994609763,0,1.7270685188114685,1,0.44870988240743465,1,1.3468203164848669,0,153.91634019157294,2.6656374289553879,8.0185474893143489,1.2436522139346080,1.0586707264174235,0.79265478031306214,0.65182971772671228,-13451.847299666786,-1.4124454119004641E-003,107.07669517534285,195.77034914088966,234.28710747680071,293.29965704140920,94.835770014210865,91.400000000000006,-3.3999999999999773,0.40795524704774438,-3.1900061197006835,3.6931261664939652E-002
20240124130000,428.99100331050334,4.5708079582484364,0.41590481267614676,0,1.5805121563791440,0,6.3705814930646365E-002,1,0.84147214698502548,0,153.64894611988854,2.4530625726684470,6.9615764246629306,1.1665360632190276,0.93135099206932026,0.68895431396048490,0.58324246429586590,-10529.878460957592,-1.8043892976018386E-003,109.59276134307252,200.37052055364583,239.79233775769725,300.19155207870153,94.831105558376734,91.400000000000006,-3.3999999999999773,0.40795524704774438,-3.2221384209526605,3.4781090253647451E-002
20240124133000,429.28693398109783,4.5924457055844234,0.39074100228724717,0,1.5427277106814963,0,-2.8754344154268915E-002,2,0.79784621218114971,0,161.11682528543693,2.4767386825268036,6.4177283622096128,1.1279298246608893,0.94732742047259666,0.70407129785477263,0.56536137841170753,-9826.5328135038635,-1.9335405845172298E-003,105.05639582118484,192.07659758005792,229.86663025579730,287.76574411362230,94.841974056857637,91.396000000000001,-3.3346666666666920,0.41014205907217788,-3.2198765165540522,3.5332403067004796E-002
20240124140000,429.53248058475310,4.6039211525520152,0.45630039943528855,0,2.5819563359347182,0,0.44202820289584660,1,0.92096400709110959,0,163.51531149058087,2.5230603325920860,7.2443118517829914,1.2523843220079964,1.0917513120089049,0.75180834042113842,0.61105037090386072,-7411.9836394874255,-2.5634163436056832E-003,106.07933730001686,193.94686085381423,232.10485772257837,290.56773930429898,94.823672645830442,91.376666666666665,-3.3009999999999877,0.41209845968164077,-3.2498309348218299,3.6363281168897317E-002
20240124143000,429.82242070859007,4.6102963131750441,0.39098295912076353,0,0.94495560079753715,2,-1.3878715865616000,2,0.31564695999305387,1,164.18785904379951,2.0364508437311910,6.3524521383954324,1.1601990714694370,0.91221865357477727,0.62564586523660626,0.56575518615869380,-16069.641649835887,-1.1823536836737141E-003,115.53002619018346,211.22573428766569,252.78325613704624,316.45464033119225,94.786718290581604,91.358333333333334,-3.2850000000000250,0.41346823312144237,-3.2037724533080905,3.8394490840422499E-002
20240124150000,430.14680655929652,4.6538402176771783,0.26524077610431912,0,12.496483285682430,1,3.7677781575363412,1,0.69403018661355986,0,169.59683162018254,2.0704613925461657,5.9648427384671674,0.99191665413283070,0.78286993111871506,0.60827906815590538,0.46616661404758658,-679.61808159355860,-2.7956878303545245E-002,101.20583114012074,185.03653726845536,221.44147611930151,277.21845089988921,94.754207580729172,91.395000000000010,-3.1689999999999827,0.41529326608623252,-3.0928296983506698,6.9734704190942395E-002
20240124153000,430.07830929785490,4.6865259567587580,0.34191731931263791,0,20.925569801762919,0,4.1427519297737527,1,0.43493053782815000,0,167.36765851062498,2.3770086278057208,6.2963592861403406,1.0079359427808048,0.93572101667239782,0.67541903974363449,0.52944947792512442,-594.49136259560271,-3.1960094284708009E-002,103.05187074077189,188.41168642257873,225.48066763166511,282.27503936546714,94.728914236111123,91.313000000000002,-3.0666666666666629,0.42246163522966074,-2.9689684541490351,8.8290180521002321E-002
20240124160000,429.93527169983651,4.7483826578409829,0.31199360288603378,0,19.302155157942618,0,1.2338486068770795,1,0.41530725754345338,0,171.24460368908115,2.2997267228150893,6.4090140218129399,1.0010607224027201,0.99936954444831383,0.65318884588518611,0.50590344831787992,-562.28888696077115,-3.3790459745162205E-002,102.06527347665123,186.60787196470756,223.32196242623417,279.57259660954600,94.731334564236107,91.402000000000001,-2.9033333333333076,0.42325060452527907,-2.7698980161878808,0.10934098851613760
20240124163000,429.74126534845061,4.8215994908557391,0.31521817398456176,0,30.296473481999953,0,1.5715139434878376,2,0.56845880134511084,0,170.58925529150585,2.0983020512380746,6.0323109017823198,1.0269481639019029,0.95120738168767927,0.70744145178929296,0.50871754334069730,-364.25341977151788,-5.2161486944770394E-002,96.179799852119757,175.84734910352617,210.44436483728646,263.45137253950344,94.730403066236860,91.376999999999995,-2.6940000000000168,0.43114016890857498,-2.5403153758592794,0.11717561339501664
20240124170000,429.42878978332271,4.8767728076403181,0.23707368022330919,0,20.817156170285070,0,-1.7779936552429410,1,0.69494997235068556,0,181.12838526195998,2.6479526677924059,6.1829426957762141,0.99189827403055630,0.99490295320526034,0.69910416846411372,0.44127675039519093,-346.05152271082392,-5.4905118900104501E-002,86.654320989854241,158.43173574763972,189.60232366000608,237.35961019212559,94.748333517795146,91.294333333333341,-2.5260000000000105,0.44073627409433813,-2.3092836388481714,0.10442286523290106
20240124173000,429.61623495904854,4.8950789988195078,0.39838092483253124,0,28.494690630030412,0,-1.6733574536817502,2,-0.53103190601845507,2,196.62735257941267,2.3546971034943653,6.2987995287804637,1.0939141819417870,0.90304885287270531,0.63686639753657304,0.57220516882009043,-551.12140431546129,-3.4475162552613216E-002,114.93641660065401,210.14042663593753,251.48442006936963,314.82865169995580,94.725440983723971,90.947000000000003,-2.4273333333333085,0.46168627339564977,-2.0922282358804978,0.14476209123907913
20240124180000,429.85173597837485,4.9831511369770105,0.20560043654797211,0,38.239144222029452,0,4.8809412200132485,1,0.36043731954485414,0,197.25082700631606,2.1084823707330611,5.6641220921077595,0.93834734422355237,0.72825670027543543,0.60524894548688446,0.41133949050915614,-152.52605472498669,-0.12456888125938942,91.932271567480726,168.08151271954083,201.15064210794384,251.81673451562474,94.691100069227431,90.856666666666669,-2.1779999999999973,0.47498233050760463,-1.7186812489827048,0.16048727726886797
20240124183000,429.80676132177769,5.0659818604859499,0.19532215887996029,0,39.581415607846289,0,0.78241875057115151,2,0.40177665142237823,0,189.99488378853320,2.3649278431331884,5.0840965961266171,0.88571525038184606,0.82271993827817236,0.57216141984734903,0.40125805373029266,-136.72509168507784,-0.13896498269507951,94.271203886155277,172.35782696228063,206.26829807060614,258.22343249772950,94.633089775173602,90.457999999999998,-1.9036666666666520,0.50584278578728747,-1.3444745025634575,0.18032034499504790
20240124190000,429.65353547875833,5.1996936971221386,0.24289447544713716,0,43.765083022194858,0,2.7151857984773140,0,0.58277541970587388,0,174.50922413299861,1.7560367955944827,5.0882733056613585,0.91917347983109488,0.93231782830986654,0.60299420040951979,0.44784719595943517,-171.90016473674262,-0.11052927162168603,98.697983392851256,180.45139174943117,215.95422799553538,270.34906738948376,94.613140475694436,90.161000000000001,-1.5083333333333258,0.53700451741175814,-0.82296179029674477,0.21838723631265286
20240124193000,429.98289437902537,5.2309204505449225,0.51092191606076909,0,68.611642319859271,0,8.9458190865367140,1,-0.36998725625394818,2,153.86505858671634,2.1611751081068369,6.9710541818079506,1.2184748087805550,1.0176891202145792,0.70358764267533025,0.65013504839732994,-335.34599660405820,-5.6657900175958356E-002,117.54474025488574,214.90927415803563,257.19151257266901,321.97325428585373,94.570877767017521,88.149333333333331,-1.1256666666666888,0.66523603324240699,-0.56330015570574687,0.17414180064981943
20240124200000,430.35530327267060,5.1763266519423006,0.27682335527317309,0,46.882068028433899,0,4.4017942339713478,1,0.46309790573277354,0,153.19581812362142,2.8016744392990676,6.7869835970292991,1.0606706905094596,0.90677147765963562,0.66184954225573112,0.47874105290607150,-195.95066457650998,-9.6963182243157683E-002,96.633568611595763,176.67698311797139,211.43722486109348,264.69431547225344,94.562970617404517,85.955333333333328,-0.92599999999998772,0.80001451757666697,-0.53354260762529293,0.15094458765888796
20240124203000,430.46544987030705,5.2173990888252151,0.41187496495502623,0,37.576100121631690,0,1.9544203786126442,1,0.31714835467240360,1,153.89200499138710,2.3029517506449060,6.2502637449821519,1.0892200248794444,0.90835145971385323,0.71388686722793204,0.58433813594403450,-444.56851761409183,-4.2738069042695843E-002,106.67994185464464,195.04495753267182,233.41899898936578,292.21288822864125,94.563387402164707,84.442999999999998,-0.57499999999998863,0.90919231429578251,-0.22911165251093735,0.11862929534866799
20240124210000,431.62565231687893,5.2276624822834235,0.22525484673075521,0,18.229113876833832,0,-0.61670851737383869,2,1.2387933548565713,2,158.78248015204076,2.3801638307751780,5.6002734955140347,1.0667352276370021,0.76100952925596665,0.56979514346597870,0.43229026736327691,-371.02578940888174,-5.1209378276024418E-002,100.39226934611250,183.54908683678235,219.66137785273008,274.98997910428642,94.558453000868056,83.491000000000000,-0.39333333333331666,0.97769970146868168,-6.7607872009261882E-002,7.9646616059310948E-002
20240124213000,432.72334009613104,5.2275683681781642,0.14783138054475273,1,21.404976707599481,0,1.6915165995217094,1,0.12327762556676330,2,177.79186423830589,1.3380216894657042,4.1094357936625148,0.65785072948068968,0.59379182203781478,0.42703740973585680,0.35036105835149117,-168.17761954041717,-0.11297579340177209,106.87960146488092,195.40999897835039,233.85586036695690,292.75978683352838,94.525330867621520,82.563333333333333,-0.24500000000000455,1.0438561488002511,3.7108764648792203E-003,7.6097914450446294E-002
20240124220000,433.19379168559084,5.2289890015371236,0.13601045140079224,1,12.671027961553497,0,2.4215128301555877,1,0.39063486367627998,1,185.43237023086598,1.1383578019877350,2.9655587746946037,0.57791138695270128,0.54322069586018695,0.34089091070912581,0.33615495465373940,-250.87763486853336,-7.5734132338885096E-002,123.82096259355157,226.38421029156510,270.92408038492164,339.16479962101658,94.500709006188529,82.081000000000003,-0.16433333333333167,1.0790471080556614,5.0937356645249565E-002,5.1538859251767002E-002
20240124223000,433.38804034755549,5.2385401507789062,0.11109114099990032,1,9.6879481915936356,0,2.3331375568338135,1,1.3924648879591228,0,190.89369221952518,1.1753738626065782,3.7064332874219597,0.51684071679096111,0.45782156285886655,0.39592095372985847,0.30384485450704929,-242.28738227136532,-7.8419271453103276E-002,101.31870241116933,185.24290195037770,221.68844193728739,277.52762279797741,94.485733627738156,82.040666666666667,-0.13466666666670335,1.0838121767964690,5.3404486450915556E-002,3.8849273310286037E-002